TIME,DELAY(SENSOR),PRES,T(CTD),SAL,OXYGEN,RAWTEMP,T(OPTODE),TCPHASE,FLUOR,BETA(BETA700),BETA(BETA412),BETA(BETA440),CDOM,C(CSC),ED(ED411.90),ED(ED443.80),ED(ED489.40),ED(ED554.70),LU(LU412.20),LU(LU443.80),LU(LU489.40),LU(LU555.00),COMP,TILTX,TILTX(TILTY),CHECK
1344957036,5805,496.8599853515625000,16.5391006469726560,36.2816009521484400,220.6555938720703000,203.7088012695312500,16.5365600585937500,32.1176300048828100,51,103,98,79,68,14077,2146955629,2147511497,2147269403,2147470564,2147087570,2146953929,2147662665,2147117504,2165,-2,8,2787
1344957157,5803,485.8200073242187500,16.6762008666992200,36.3084983825683600,222.8287963867187500,199.1970977783203000,16.6725406646728500,31.9411792755126950,50,101,98,79,67,14075,2146953737,2147514459,2147268452,2147470025,2147086427,2146952612,2147659593,2147122898,2167,-2,8,54506
1344957280,5804,474.8599853515625000,16.8019008636474600,36.3339996337890600,224.1228027343750000,195.0588073730468800,16.7972793579101560,31.8170108795166000,50,101,99,81,69,14076,2146953115,2147512265,2147267584,2147467885,2147087616,2146953325,2147657097,2147121316,1648,-2,8,47742
1344957401,5805,464.2200012207031000,16.9396991729736330,36.3616981506347660,225.7783966064453000,190.3677978515625000,16.9386997222900400,31.6674804687500000,51,102,98,80,68,14077,2146955108,2147512420,2147268626,2147465965,2147086701,2146955638,2147655890,2147123794,1295,-2,8,28942
1344957522,5806,453.5599975585937500,17.0512008666992200,36.3829994201660160,227.9958953857422000,186.7050018310547000,17.0491294860839840,31.5049591064453120,50,102,99,81,67,14073,2146953609,2147511881,2147266614,2147465563,2147088073,2146951881,2147654866,2147124964,1112,-2,8,13851
1344957645,5808,442.7300109863281000,17.2024993896484380,36.4109001159668000,229.6784973144531200,181.9454040527343800,17.1926593780517580,31.3553791046142580,50,101,97,80,67,14075,2146955154,2147511286,2147271378,2147467949,2147084617,2146954340,2147661147,2147121280,589,-2,8,62319
1344957777,5803,431.1400146484375000,17.2817001342773440,36.4264984130859400,230.3336944580078000,179.1647033691406200,17.2765293121337900,31.2849903106689450,50,103,97,81,67,14075,2146951808,2147507392,2147270601,2147462820,2147085613,2146951259,2147661449,2147118729,164,-2,8,4770
1344957900,5806,420.3399963378906000,17.3931999206542970,36.4485015869140600,232.2476959228515600,175.4582061767578000,17.3883304595947270,31.1399192810058600,50,102,97,80,67,14072,2146954806,2147514002,2147269540,2147463780,2147084416,2146952612,2147658532,2147122468,611,-2,8,53878
1344958032,5808,408.9800109863281000,17.4867992401123050,36.4660987854003900,233.6618041992187500,172.2252960205078000,17.4858608245849600,31.0272197723388670,50,103,99,80,67,14074,2146951497,2147511890,2147268324,2147464118,2147086454,2146956672,2147652754,2147119177,271,-2,8,56633
1344958153,5808,398.6199951171875000,17.5666999816894530,36.4817008972168000,234.5845947265625000,169.7409973144531200,17.5608196258544920,30.9487304687500000,51,102,97,79,68,14075,2146956160,2147512000,2147270363,2147461915,2147088466,2146955062,2147655890,2147118308,100,-2,8,19814
1344958287,5805,387.3699951171875000,17.6329994201660160,36.4936981201171900,235.1114959716797000,167.4550933837890600,17.6298007965087900,30.8922195434570300,51,101,97,80,67,14069,2146952649,2147511524,2147268854,2147462820,2147085037,2146952402,2147654464,2147123803,3439,-2,8,13693
1344958419,5806,376.2999877929687500,17.6968994140625000,36.5038986206054700,235.5554962158203000,165.2561035156250000,17.6961708068847660,30.8414993286132800,50,100,98,79,68,14074,2146956955,2147511094,2147271798,2147462985,2147087387,2146960713,2147658541,2147118308,3074,-2,8,53869
1344958553,5807,365.4200134277344000,17.7619991302490230,36.5159988403320300,236.2127075195312500,163.2861022949218800,17.7556304931640620,30.7831096649169920,50,101,99,81,66,14074,2146954971,2147512566,2147271579,2147462363,2147086710,2146958957,2147659273,2147120256,2066,-2,8,9821
1344958685,5807,354.8299865722656000,17.8260002136230470,36.5275993347168000,237.4075012207031200,161.1614990234375000,17.8197708129882800,30.6977806091308600,50,102,97,80,66,14069,2146955254,2147514221,2147276726,2147464768,2147086436,2146957385,2147659273,2147119369,1917,-2,8,41898
1344958850,5803,341.2000122070312500,17.8733005523681640,36.5362014770507800,237.8701019287109400,159.3448028564453000,17.8746109008789060,30.6513595581054700,50,103,98,81,66,14071,2146953334,2147513517,2147280512,2147465188,2147086528,2146961252,2147658276,2147121033,1441,-2,8,9272
1344958960,5806,330.3299865722656000,17.9325008392334000,36.5452003479003900,237.5668945312500000,157.5572052001953000,17.9285907745361330,30.6417808532714840,51,103,97,79,67,14069,2146954267,2147516141,2147280365,2147461613,2147085403,2146958564,2147661385,2147121700,1250,-2,8,33422
1344959070,5807,319.1700134277344000,17.9768009185791000,36.5519981384277340,237.6750946044922000,156.0821990966797000,17.9731292724609380,30.6168193817138670,50,101,98,80,67,14071,2146951890,2147517549,2147284132,2147458468,2147087478,2146962761,2147667849,2147119643,899,-2,8,46817
1344959182,5807,307.6199951171875000,18.0158004760742200,36.5564002990722660,237.1528015136718800,154.7662963867187500,18.0128707885742200,30.6242008209228500,50,103,98,81,66,14068,2146953590,2147521453,2147291675,2147460416,2147086116,2146964461,2147674907,2147121334,879,-2,8,36393
1344959281,5806,297.3200073242187500,18.0629997253417970,36.5620002746582000,236.5287017822265600,153.1707000732422000,18.0610599517822270,30.6328697204589840,50,103,98,81,66,14069,2146954413,2147522358,2147303872,2147463414,2147085083,2146966893,2147674066,2147119789,411,-2,8,11647
1344959391,5806,285.5899963378906000,18.1219997406005860,36.5680007934570300,236.0984954833984400,151.1864013671875000,18.1210002899169920,30.6268405914306640,50,101,98,81,67,14069,2146955072,2147525211,2147316900,2147461824,2147086080,2146969792,2147681270,2147121289,219,-2,8,29924
1344959508,5808,274.1400146484375000,18.1674003601074220,36.5722007751464840,235.2696990966797000,149.8164062500000000,18.1623802185058600,30.6480998992919920,51,103,99,80,67,14066,2146952676,2147528676,2147333549,2147462290,2147087488,2146974125,2147690697,2147119762,65,-2,8,29449
1344959640,5806,263.0000000000000000,18.2304992675781250,36.5789985656738300,234.1210937500000000,147.6526947021484400,18.2277603149414060,30.6749496459960940,51,101,99,80,66,14065,2146951030,2147539126,2147361078,2147460013,2147087954,2146979620,2147706413,2147122724,106,-2,8,21460
1344959763,5803,252.9900054931640600,18.2917995452880860,36.5812988281250000,232.5494995117187500,145.6309051513672000,18.2888507843017580,30.7241096496582030,50,105,98,80,67,14063,2146956132,2147550738,2147389750,2147459510,2147090002,2146987209,2147727972,2147129526,3454,-2,8,50966
1344959906,5804,241.9700012207031200,18.4127998352050780,36.5889015197753900,229.6199951171875000,141.4853057861328000,18.4141407012939450,30.8123703002929700,50,103,97,81,66,14062,2146952173,2147572224,2147439926,2147462253,2147086592,2147003574,2147752640,2147131520,3141,-2,8,49524
1344960093,5807,227.6100006103515600,18.5680007934570300,36.5989990234375000,228.4434967041015600,136.5590972900390600,18.5630798339843750,30.8047904968261720,50,103,98,81,67,14063,2146961024,2147611556,2147533211,2147461348,2147091108,2147030994,2147806070,2147134454,2697,-2,8,22474
1344960211,5806,216.3800048828125000,18.6674003601074220,36.5909004211425800,229.3638000488281200,132.9541931152343800,18.6721096038818360,30.7111091613769530,51,105,99,82,67,14064,2146964598,2147652160,2147638893,2147458541,2147095707,2147056128,2147859163,2147140169,2486,-2,8,23006
1344960332,5803,204.7200012207031200,18.8770999908447270,36.6053009033203100,230.4539031982422000,126.3320007324218800,18.8724708557128900,30.5694904327392580,51,103,99,80,65,14060,2146970185,2147717440,2147783131,2147458651,2147097645,2147101696,2147942125,2147141101,2363,-2,8,9857
1344960418,5805,197.2100067138672000,19.0086002349853500,36.6007995605468750,233.1578979492187500,121.8725967407226600,19.0074596405029300,30.3792190551757800,51,103,98,80,65,14063,2146979053,2147777883,2147910646,2147453997,2147103835,2147147136,2148010624,2147145078,2038,-2,8,22802
1344960473,5808,192.7700042724609400,19.0806999206542970,36.5984001159668000,236.9017028808593800,119.3743972778320300,19.0830993652343750,30.1675090789794920,51,104,98,81,66,14051,2146986240,2147822198,2148002834,2147459465,2147105234,2147177417,2148060425,2147149952,1809,-2,8,53590
1344960528,5804,188.4799957275390600,19.1142005920410160,36.5974998474121100,239.6233978271484400,118.3535003662109400,19.1140193939209000,30.0265407562255860,51,104,98,80,66,14063,2146990189,2147870692,2148101156,2147459748,2147107090,2147212544,2148118418,2147149184,1005,-3,8,15577
1344960583,5807,184.2200012207031200,19.1693992614746100,36.5923995971679700,243.2565002441406200,116.6744003295898400,19.1648807525634770,29.8368091583251950,52,106,99,80,65,14061,2147001490,2147922240,2148212050,2147459026,2147107794,2147254153,2148183716,2147153408,436,-2,8,59568
1344960638,5803,179.9600067138672000,19.2208995819091800,36.5920982360839840,246.3621978759765600,114.9235000610351600,19.2179203033447270,29.6728801727294920,52,108,99,81,64,14060,2147011154,2147986057,2148335862,2147458797,2147117787,2147295954,2148250806,2147160896,448,-2,8,39951
1344960716,5804,174.4199981689453000,19.2570991516113280,36.5927009582519500,249.9552001953125000,113.8143005371093800,19.2515296936035160,29.4978694915771500,52,104,98,80,64,14062,2147026304,2148059584,2148497782,2147459346,2147126976,2147355657,2148341174,2147167122,2864,-2,8,42620
1344960771,5808,170.8699951171875000,19.2782993316650400,36.5912017822265600,251.6188049316406200,113.1524963378906200,19.2715797424316400,29.4160900115966800,53,103,97,81,64,14060,2147037970,2148115309,2148616411,2147456694,2147135817,2147398500,2148408338,2147168905,2731,-2,8,59835
1344960826,5805,167.3699951171875000,19.2681007385253900,36.5793991088867200,254.1898956298828000,113.4041976928711000,19.2639503479003900,29.3071708679199220,54,102,99,80,64,14062,2147050980,2148177499,2148749705,2147460461,2147140662,2147441609,2148487268,2147172617,3108,-2,8,24856
1344960892,5805,163.3200073242187500,19.2632999420166000,36.5764007568359400,255.8229980468750000,113.4888992309570300,19.2613792419433600,29.2374897003173830,53,103,98,81,63,14061,2147070354,2148265554,2148929353,2147461101,2147143195,2147513563,2148586605,2147182189,3034,-2,8,29736
1344960958,5805,159.4199981689453000,19.3027000427246100,36.5830001831054700,255.7662963867187500,112.1852035522461000,19.3008899688720700,29.2232799530029300,57,103,98,80,63,14055,2147097398,2148377417,2149138925,2147458989,2147170578,2147588205,2148707858,2147187785,2992,-2,8,29882
1344961036,5806,155.4600067138672000,19.3386993408203120,36.5882987976074200,255.8567047119140600,111.1349029541015600,19.3327198028564450,29.2059192657470700,60,105,98,82,64,14053,2147124434,2148490285,2149351753,2147462902,2147186093,2147670628,2148821257,2147195931,3020,-2,8,39938
1344961124,5806,151.8999938964843800,19.3591995239257800,36.5912017822265600,255.8130035400390600,110.4592971801757800,19.3532009124755860,29.1989707946777340,67,109,99,81,64,14050,2147153060,2148604123,2149584612,2147464996,2147202578,2147744969,2148934848,2147206116,3296,-2,8,5191
1344961234,5804,147.7100067138672000,19.3659000396728500,36.5905990600585940,255.9895019531250000,110.1667022705078100,19.3620605468750000,29.1876907348632800,72,112,100,82,63,14041,2147194806,2148757046,2149887241,2147467108,2147228708,2147837668,2149087323,2147209197,3125,-2,8,2749
1344961335,5807,143.8999938964843800,19.3766002655029300,36.5908012390136700,255.9158020019531200,109.7935028076171900,19.3733806610107420,29.1860408782959000,76,119,99,81,64,14032,2147246902,2148941184,2150220708,2147472100,2147248192,2147935771,2149241060,2147222262,3217,-2,8,34956
1344961445,5804,139.8699951171875000,19.3829002380371100,36.5891990661621100,255.6165008544922000,109.5690994262695300,19.3801803588867200,29.1960391998291000,87,117,100,83,63,14027,2147326153,2149206180,2150704923,2147475858,2147291090,2148074925,2149436022,2147238966,3176,-2,8,22319
1344961555,5805,135.8099975585937500,19.3894004821777340,36.5848007202148440,255.5294036865234400,109.4169006347656200,19.3847904205322270,29.1977691650390620,93,116,101,82,65,14023,2147424009,2149538084,2151279716,2147481554,2147341531,2148223844,2149669174,2147253101,3041,-2,8,28401
1344961653,5808,131.4299926757812500,19.4127006530761720,36.5852012634277340,255.8363037109375000,108.5827026367187500,19.4100799560546880,29.1739501953125000,99,117,100,82,64,14015,2147571913,2150000045,2152076690,2147491584,2147396004,2148431753,2149974043,2147278235,2746,-2,8,45304
1344961730,5805,126.9400024414062500,19.4241008758544920,36.5859985351562500,256.6441955566406000,108.1825027465820300,19.4222106933593750,29.1342506408691400,102,121,101,83,64,14012,2147760822,2150571766,2153016310,2147506944,2147468982,2148664000,2150315638,2147305152,2563,-2,8,36979
1344961796,5803,122.8600006103515600,19.4454002380371100,36.5880012512207000,257.7200012207031000,107.6094970703125000,19.4395809173584000,29.0807495117187500,105,117,100,83,66,14012,2147994313,2151252196,2154122221,2147528594,2147565613,2148935561,2150720886,2147334994,2250,-2,8,20639
1344961851,5804,119.3600006103515600,19.4491004943847660,36.5839996337890600,258.3297119140625000,107.4257965087890600,19.4451503753662100,29.0525093078613280,112,118,101,84,67,14004,2148215085,2151862189,2155102427,2147548379,2147645632,2149178267,2151072612,2147363949,2333,-2,8,17587
1344961917,5805,115.1200027465820300,19.4831008911132800,36.5838012695312500,259.3846130371094000,106.3520965576171900,19.4777107238769530,28.9941406250000000,120,119,99,83,66,13992,2148551872,2152772726,2156531154,2147576329,2147771474,2149513344,2151566016,2147410212,2378,-2,8,47133
1344961985,5805,111.0100021362304700,19.5265998840332030,36.5853996276855500,261.4920959472656000,104.9411010742187500,19.5204906463623050,28.8875007629394530,124,116,100,83,66,13988,2149062281,2154064027,2158409645,2147625188,2147946989,2149955483,2152180845,2147467428,2468,-2,8,10410
1344962051,5805,107.5400009155273400,19.5592002868652340,36.5854988098144500,263.7072143554687500,103.8881988525390600,19.5524291992187500,28.7816696166992200,129,117,101,83,67,13980,2149711588,2155600859,2160411328,2147670582,2148164242,2150512694,2152878674,2147531803,2182,-2,8,22767
1344962128,5802,103.7799987792968800,19.5830001831054700,36.5864982604980500,265.0646057128906000,102.8976974487304700,19.5824699401855470,28.7131595611572270,127,118,101,83,67,13975,2150757019,2157966089,2163409325,2147746331,2148523163,2151327204,2153851931,2147629174,2081,-2,8,19358
1344962216,5806,99.6800003051757800,19.6324005126953120,36.5867004394531250,267.3987121582031000,101.2574005126953100,19.6322307586669920,28.5966300964355470,123,119,100,84,66,13969,2152064329,2160722934,2166560018,2147840365,2149013814,2152366592,2155036800,2147750244,1708,-2,8,25747
1344962271,5803,97.1100006103515600,19.6837997436523440,36.5871009826660160,268.3806152343750000,99.7739868164062500,19.6772308349609380,28.5380191802978500,105,119,101,83,66,13972,2153262509,2163247149,2169522212,2147932041,2149460635,2153317156,2156094573,2147861129,1617,-2,8,5003
1344962328,5807,94.4800033569336000,19.7500000000000000,36.5876007080078100,270.0046997070312500,97.6434936523437500,19.7418899536132800,28.4455394744873050,102,119,100,84,65,13968,2154434075,2165267858,2171285065,2148002148,2149929408,2154199698,2156933915,2147948644,1535,-3,8,45218
1344962383,5802,92.0699996948242200,19.7956008911132800,36.5887985229492200,271.8005065917969000,96.1627731323242200,19.7868309020996100,28.3549098968505860,98,122,101,84,64,13969,2156414345,2169051812,2175440603,2148148598,2150703981,2155755410,2158613942,2148120283,1193,-2,8,38490
1344962438,5805,89.5100021362304700,19.8334999084472660,36.5889015197753900,272.6474914550781000,94.9133605957031200,19.8247604370117200,28.3054790496826170,96,120,101,86,65,13964,2158348992,2172579218,2179168246,2148306230,2151482002,2157251099,2160118692,2148274752,852,-2,8,45918
1344962493,5805,86.8000030517578100,19.9085006713867200,36.5848007202148440,273.9913024902344000,92.3898468017578100,19.9013805389404300,28.2205905914306640,94,121,102,84,64,13959,2160323638,2175934637,2182547254,2148480530,2152353142,2158851977,2161678180,2148443766,547,-1,8,25232
1344962548,5808,84.3099975585937500,20.0051994323730470,36.5834007263183600,275.5788879394531000,89.5034637451171900,19.9890403747558600,28.1218700408935550,87,123,103,84,64,13954,2162509394,2179420397,2185938651,2148673042,2153320832,2160606738,2163302144,2148607094,251,-2,8,36243
1344962603,5804,82.2600021362304700,20.0457992553710940,36.5825996398925800,277.1665039062500000,87.8022384643554700,20.0407295227050780,28.0386009216308600,86,126,104,85,64,13951,2164896146,2182991707,2189208630,2148879990,2154343725,2162301869,2164698221,2148749220,3036,-2,8,38045
1344962660,5803,80.4700012207031200,20.1103000640869140,36.5886993408203100,278.2284851074219000,85.6760635375976600,20.1053390502929700,27.9708309173584000,85,124,104,86,62,13938,2167864137,2187322953,2192939364,2149059419,2155646189,2164460205,2166528859,2148934747,2753,-2,8,33581
1344962715,5803,78.8600006103515600,20.1898994445800780,36.5918006896972660,279.8841857910156000,83.2995834350586000,20.1775703430175780,27.8774299621582030,84,124,104,85,61,13942,2170694802,2191414290,2196605577,2149284342,2156914212,2166521664,2168284114,2149112374,2500,-2,8,44026
1344962770,5805,77.0899963378906200,20.2541999816894530,36.5934982299804700,281.1654052734375000,81.2430267333984400,20.2401008605957030,27.8028297424316400,85,130,104,87,63,13933,2173905682,2196216000,2201226148,2149596050,2158365220,2168874852,2170265792,2149336777,2405,-2,8,38861
1344962836,5807,75.0400009155273400,20.3612003326416000,36.5941009521484400,282.0278015136719000,77.7322235107421900,20.3468704223632800,27.7264595031738280,82,124,104,85,63,13940,2176680438,2200061430,2204620059,2149886674,2159900260,2171357092,2172493284,2149589485,1855,-2,8,30406
1344962902,5807,73.5100021362304700,20.4841995239257800,36.5895004272460940,282.9538879394531000,73.8406066894531200,20.4652900695800780,27.6431694030761720,82,126,106,86,62,13930,2179039122,2203223789,2207344064,2150117787,2161076416,2173125348,2173984704,2149756452,1490,-2,8,22195
1344963036,5804,71.3199996948242200,20.7401008605957030,36.5942001342773440,284.1264953613281000,67.6520767211914000,20.6537094116210940,27.5225505828857420,78,129,105,90,64,13917,2185893330,2212210066,2215121892,2150682002,2164601581,2178255625,2177811794,2150176009,513,-2,8,47853
1344963113,5806,69.3399963378906200,20.8668994903564450,36.5945014953613300,284.3283081054687500,61.1846389770507800,20.8507995605468750,27.4353904724121100,76,129,106,91,60,13907,2190705325,2218097225,2219817645,2151141302,2167434797,2182352786,2180945636,2150521654,712,-2,8,23071
1344963201,5806,67.2099990844726600,20.9869003295898440,36.5942001342773440,284.4197082519531000,56.9834289550781250,20.9789199829101560,27.3803291320800780,74,126,106,97,61,13909,2196548004,2225329965,2226148443,2151805833,2170516772,2186692352,2183973321,2150849252,3121,-2,8,24976
1344963301,5803,64.7600021362304700,21.2646999359130860,36.5929985046386700,284.8396911621094000,48.6285896301269500,21.2339305877685550,27.2623901367187500,72,130,105,91,61,13905,2205830354,2236328192,2235156736,2152726966,2175903122,2193860041,2189159003,2151433581,2383,-2,8,829
1344963356,5804,62.7799987792968750,21.3918991088867200,36.5915985107421900,284.9208984375000000,43.4085884094238300,21.3934192657470700,27.1956691741943360,71,128,106,92,57,13898,2213665499,2245275309,2242576758,2153608292,2180851794,2200412388,2193950537,2151996150,2360,-2,9,29798
1344963411,5805,60.7200012207031250,21.6980991363525400,36.5775985717773440,285.0473022460937500,36.4168586730957000,21.6072406768798830,27.1056499481201170,69,127,106,87,59,13897,2220332452,2252627501,2248746358,2154494500,2185410112,2205902052,2197663835,2152462162,2482,-2,8,27568
1344963466,5807,58.9700012207031250,21.7998008728027340,36.5812988281250000,284.6749877929687500,30.9490299224853500,21.7746295928955080,27.0529499053955080,67,131,106,86,60,13901,2225833810,2259119268,2254977581,2155477430,2189245531,2210658066,2201275766,2152987437,3495,-2,9,58520
1344963532,5805,57.0099983215332000,21.8150005340576170,36.5822982788085940,285.1177062988281000,29.6882095336914060,21.8132400512695300,27.0213298797607420,74,131,104,86,61,13904,2232101686,2266913316,2262642176,2156769289,2193222729,2215739117,2205495744,2153610578,509,-2,9,39243
1344963610,5804,54.6199989318847660,21.8649997711181640,36.5763015747070300,285.0382995605469000,27.8751697540283200,21.8687896728515620,27.0021495819091800,66,126,105,86,61,13891,2241022290,2276953965,2271914779,2158671387,2200293019,2224441481,2211898468,2154586532,716,-2,8,29356
1344963752,5808,51.4500007629394500,22.2886009216308600,36.5606002807617200,283.4440917968750000,14.7382802963256840,22.2717609405517580,26.9022808074951170,63,131,106,90,61,13887,2256357348,2292542848,2284818852,2161144932,2213129517,2238572608,2220672676,2155710628,119,-3,9,12911
1344963786,5806,51.1899986267089840,22.3570003509521500,36.5587005615234400,283.5711975097656000,12.3399801254272460,22.3454303741455080,26.8684692382812500,62,129,109,86,58,13891,2258223442,2294231981,2285930413,2161272118,2215457545,2241077147,2222257252,2155941952,465,-3,8,27765
1344963915,5805,49.5099983215332000,22.3887004852294920,36.5584983825683600,283.7062988281250000,10.6411199569702150,22.3976306915283200,26.8430309295654300,62,127,106,87,59,13896,2267783844,2304353252,2295177225,2163597888,2224841828,2251741302,2229693257,2157045668,274,-2,8,58593
1344963960,5804,47.2099990844726560,22.4358997344970700,36.5573005676269500,283.4114074707031000,9.0783739089965820,22.4456596374511720,26.8349800109863280,62,129,106,86,60,13893,2280172790,2317831378,2307973824,2166980644,2235629412,2263832192,2237773549,2158371318,261,-3,9,31623
1344963993,5804,45.4399986267089840,22.5774993896484380,36.5480995178222660,282.7981872558594000,4.9902591705322270,22.5713806152343750,26.8084793090820300,62,130,106,87,61,13890,2287185773,2324794724,2314441417,2169182784,2243784091,2273045878,2244270308,2159364772,344,-3,8,58332
1344964038,5809,43.6399993896484400,22.6905994415283200,36.5428009033203100,282.4169006347656000,1.4886889457702637,22.6791305541992200,26.7805099487304700,60,127,104,87,57,13896,2295199552,2332510857,2320951222,2171332260,2252127661,2281683638,2249785481,2160296475,80,-2,8,58376
1344964131,5805,41.9399986267089840,23.1142005920410160,36.5169982910156250,280.3677062988281000,-10.5120897293090820,23.0489692687988280,26.7125205993652340,60,126,106,87,60,13882,2308610148,2346184173,2333187209,2174577691,2264735323,2294155200,2258062619,2161760621,722,-2,9,45385
1344964260,5805,39.6300010681152340,23.5911006927490230,36.4838981628418000,276.5238037109375000,-27.4912204742431640,23.5737094879150400,26.6531505584716800,60,127,104,85,57,13897,2320990089,2358195812,2344053394,2179200841,2280802834,2310714998,2268767488,2163925531,554,-3,9,26159
1344964627,5806,37.8300018310546900,24.3798999786376950,36.4238014221191400,268.1532897949219000,-52.2673606872558600,24.3427696228027340,26.6774406433105470,58,122,106,85,60,13910,2291934162,2319548964,2305990445,2174080960,2260810093,2280751433,2243184091,2160256374,264,-3,9,23698
1344965173,5803,35.3600006103515600,25.1506004333496100,36.3722000122070300,260.3305053710937500,-76.2117691040039000,25.0901107788085940,26.6993503570556640,58,126,103,86,57,13907,2357857179,2398764361,2383300498,2193463296,2333798720,2363388105,2301453933,2169438363,1079,-2,9,33196